| time (UTC) | temp C | wind direction | speed KPH | gust KPH | rain 1hr cm | rain 24hr cm | rain mn cm | humidity % | barometer mb |
| 20260508004806 | 16 | 4 | 3.2 | 24.1 | 0.00 | 0.00 | 0.00 | 33 | 1012.3 |
| 20260508003755 | 17 | 34 | 4.8 | 24.1 | 0.00 | 0.00 | 0.00 | 31 | 1012.4 |
| 20260508002810 | 17 | 342 | 6.4 | 14.5 | 0.00 | 0.00 | 0.00 | 30 | 1012.3 |
| 20260508001815 | 17 | 314 | 4.8 | 16.1 | 0.00 | 0.00 | 0.00 | 32 | 1012.2 |
| 20260508000825 | 17 | 354 | 4.8 | 20.9 | 0.00 | 0.00 | 0.00 | 31 | 1012.3 |
| 20260507234700 | 17 | 6 | 1.6 | 6.4 | 0.00 | 0.00 | 0.00 | 32 | 1012.1 |
| 20260507233635 | 17 | 20 | 1.6 | 9.7 | 0.00 | 0.00 | 0.00 | 31 | 1012.2 |
| 20260507232640 | 18 | 250 | 1.6 | 9.7 | 0.00 | 0.00 | 0.00 | 31 | 1012.4 |
| 20260507231631 | 18 | 25 | 0.0 | 0.0 | 0.00 | 0.00 | 0.00 | 30 | 1012.5 |
| 20260507230645 | 18 | 274 | 0.0 | 9.7 | 0.00 | 0.00 | 0.00 | 30 | 1012.6 |
| 20260507225705 | 18 | 4 | 1.6 | 1.6 | 0.00 | 0.00 | 0.00 | 32 | 1012.6 |
| 20260507224648 | 17 | 1 | 1.6 | 14.5 | 0.00 | 0.00 | 0.00 | 31 | 1012.7 |
| 20260507223701 | 17 | 47 | 3.2 | 11.3 | 0.00 | 0.00 | 0.00 | 33 | 1012.8 |
| 20260507222627 | 17 | 334 | 1.6 | 11.3 | 0.00 | 0.00 | 0.00 | 33 | 1012.9 |
| 20260507221608 | 17 | 324 | 3.2 | 11.3 | 0.00 | 0.00 | 0.00 | 33 | 1013.2 |
| 20260507220549 | 17 | 346 | 4.8 | 12.9 | 0.00 | 0.00 | 0.00 | 33 | 1013.4 |
| 20260507212254 | 18 | 321 | 4.8 | 16.1 | 0.00 | 0.00 | 0.00 | 30 | 1014.3 |
| 20260507211251 | 18 | 316 | 4.8 | 16.1 | 0.00 | 0.00 | 0.00 | 31 | 1014.6 |
| 20260507210223 | 18 | 27 | 1.6 | 8.0 | 0.00 | 0.00 | 0.00 | 31 | 1014.9 |
| 20260507205246 | 17 | 284 | 4.8 | 14.5 | 0.00 | 0.00 | 0.00 | 31 | 1015.3 |
| 20260507204217 | 16 | 33 | 3.2 | 14.5 | 0.00 | 0.00 | 0.00 | 32 | 1015.6 |
| 20260507203207 | 17 | 9 | 3.2 | 12.9 | 0.00 | 0.00 | 0.00 | 31 | 1015.9 |
| 20260507202214 | 17 | 266 | 0.0 | 8.0 | 0.00 | 0.00 | 0.00 | 31 | 1016.1 |
| 20260507201142 | 17 | 250 | 0.0 | 0.0 | 0.00 | 0.00 | 0.00 | 31 | 1016.3 |
| 20260507200133 | 17 | 243 | 1.6 | 6.4 | 0.00 | 0.00 | 0.00 | 32 | 1016.7 |
| 20260507195137 | 16 | 22 | 0.0 | 3.2 | 0.00 | 0.00 | 0.00 | 32 | 1016.8 |
| 20260507194104 | 16 | 170 | 0.0 | 0.0 | 0.00 | 0.00 | 0.00 | 32 | 1017.1 |
| 20260507193050 | 15 | 150 | 1.6 | 4.8 | 0.00 | 0.00 | 0.00 | 33 | 1017.3 |
| 20260507192109 | 15 | 28 | 1.6 | 9.7 | 0.00 | 0.00 | 0.00 | 34 | 1017.6 |
| 20260507191113 | 15 | 105 | 1.6 | 6.4 | 0.00 | 0.00 | 0.00 | 34 | 1017.9 |
| 20260507190123 | 14 | 146 | 0.0 | 3.2 | 0.00 | 0.00 | 0.00 | 34 | 1018.0 |
| 20260507185117 | 13 | 281 | 0.0 | 3.2 | 0.00 | 0.00 | 0.00 | 36 | 1018.4 |
| 20260507182941 | 13 | 294 | 0.0 | 0.0 | 0.00 | 0.00 | 0.00 | 36 | 1018.9 |
| 20260507180839 | 12 | 40 | 0.0 | 6.4 | 0.00 | 0.00 | 0.00 | 36 | 1019.4 |
| 20260507175847 | 12 | 253 | 0.0 | 8.0 | 0.00 | 0.00 | 0.00 | 37 | 1019.5 |
| 20260507173721 | 11 | 321 | 1.6 | 6.4 | 0.00 | 0.00 | 0.00 | 39 | 1019.9 |
| 20260507172718 | 11 | 358 | 1.6 | 9.7 | 0.00 | 0.00 | 0.00 | 38 | 1020.0 |
| 20260507171716 | 10 | 8 | 1.6 | 9.7 | 0.00 | 0.00 | 0.00 | 41 | 1020.2 |
| 20260507170653 | 10 | 331 | 1.6 | 8.0 | 0.00 | 0.00 | 0.00 | 41 | 1020.4 |
| 20260507165659 | 10 | 9 | 3.2 | 8.0 | 0.00 | 0.00 | 0.00 | 42 | 1020.4 |
| 20260507164649 | 10 | 351 | 4.8 | 11.3 | 0.00 | 0.00 | 0.00 | 42 | 1020.7 |
| 20260507163649 | 10 | 27 | 3.2 | 11.3 | 0.00 | 0.00 | 0.00 | 43 | 1020.9 |
| 20260507162637 | 9 | 353 | 3.2 | 11.3 | 0.00 | 0.00 | 0.00 | 44 | 1021.1 |
| 20260507160510 | 7 | 40 | 0.0 | 6.4 | 0.00 | 0.00 | 0.00 | 44 | 1021.4 |
| 20260507155514 | 7 | 293 | 0.0 | 6.4 | 0.00 | 0.00 | 0.00 | 44 | 1021.8 |
| 20260507154529 | 6 | 33 | 0.0 | 4.8 | 0.00 | 0.00 | 0.00 | 48 | 1022.1 |
| 20260507153544 | 6 | 13 | 1.6 | 6.4 | 0.00 | 0.00 | 0.00 | 48 | 1022.5 |
| 20260507152600 | 6 | 355 | 0.0 | 3.2 | 0.00 | 0.00 | 0.00 | 49 | 1022.8 |
| 20260507151623 | 6 | 163 | 0.0 | 3.2 | 0.00 | 0.00 | 0.00 | 51 | 1023.0 |
| 20260507150554 | 5 | 121 | 0.0 | 0.0 | 0.00 | 0.00 | 0.00 | 55 | 1023.5 |
| 20260507144349 | 4 | 346 | 0.0 | 0.0 | 0.00 | 0.00 | 0.00 | 59 | 1023.7 |
| 20260507143319 | 3 | 88 | 0.0 | 0.0 | 0.00 | 0.00 | 0.00 | 64 | 1023.8 |
| 20260507142249 | 3 | 124 | 0.0 | 0.0 | 0.00 | 0.03 | 0.00 | 66 | 1023.8 |
| 20260507141309 | 2 | 134 | 0.0 | 0.0 | 0.00 | 0.05 | 0.00 | 68 | 1023.9 |
| 20260507135108 | 1 | 345 | 0.0 | 0.0 | 0.00 | 0.05 | 0.00 | 72 | 1023.8 |
| 20260507134038 | 1 | 354 | 0.0 | 0.0 | 0.00 | 0.05 | 0.00 | 74 | 1023.8 |
| 20260507133054 | 0 | 120 | 0.0 | 0.0 | 0.00 | 0.05 | 0.00 | 78 | 1023.6 |
| 20260507132042 | 0 | 120 | 0.0 | 0.0 | 0.00 | 0.05 | 0.00 | 87 | 1023.5 |
| 20260507131007 | -2 | 120 | 0.0 | 0.0 | 0.00 | 0.05 | 0.00 | 91 | 1023.0 |
| 20260507130008 | -2 | 131 | 0.0 | 0.0 | 0.00 | 0.05 | 0.00 | 93 | 1022.8 |
| 20260507080708 | -2 | 134 | 0.0 | 0.0 | 0.00 | 0.05 | 0.00 | 88 | 1022.8 |
| 20260507075657 | -2 | 134 | 0.0 | 0.0 | 0.00 | 0.05 | 0.00 | 86 | 1022.8 |
| 20260507074656 | -2 | 134 | 0.0 | 0.0 | 0.00 | 0.05 | 0.00 | 85 | 1022.8 |
| 20260507072453 | -1 | 134 | 0.0 | 0.0 | 0.00 | 0.05 | 0.00 | 83 | 1022.8 |
| 20260507071505 | -1 | 131 | 0.0 | 0.0 | 0.00 | 0.05 | 0.00 | 85 | 1022.6 |
| 20260507070450 | -1 | 61 | 0.0 | 0.0 | 0.00 | 0.05 | 0.00 | 87 | 1022.5 |
| 20260507064313 | -1 | 319 | 0.0 | 0.0 | 0.00 | 0.05 | 0.00 | 84 | 1022.5 |
| 20260507062207 | 0 | 319 | 0.0 | 0.0 | 0.00 | 0.05 | 0.00 | 77 | 1022.2 |
| 20260507055021 | 0 | 39 | 0.0 | 0.0 | 0.00 | 0.05 | 0.05 | 81 | 1021.7 |
| 20260507053945 | 0 | 294 | 0.0 | 0.0 | 0.00 | 0.05 | 0.05 | 83 | 1021.4 |
| 20260507052951 | 0 | 294 | 0.0 | 0.0 | 0.00 | 0.05 | 0.05 | 80 | 1021.3 |
| 20260507050923 | 0 | 294 | 0.0 | 0.0 | 0.00 | 0.05 | 0.05 | 78 | 1021.5 |
| 20260507045859 | 0 | 308 | 0.0 | 0.0 | 0.00 | 0.05 | 0.05 | 77 | 1021.2 |
| 20260507044834 | 0 | 307 | 0.0 | 0.0 | 0.00 | 0.05 | 0.05 | 75 | 1021.2 |
| 20260507042727 | 1 | 240 | 0.0 | 0.0 | 0.00 | 0.05 | 0.05 | 74 | 1020.9 |
| 20260507041722 | 1 | 240 | 0.0 | 0.0 | 0.00 | 0.05 | 0.05 | 71 | 1020.6 |
| 20260507040730 | 2 | 328 | 0.0 | 0.0 | 0.00 | 0.05 | 0.05 | 70 | 1020.5 |
| 20260507035718 | 2 | 122 | 0.0 | 3.2 | 0.00 | 0.05 | 0.05 | 71 | 1020.2 |
| 20260507034717 | 2 | 192 | 0.0 | 1.6 | 0.00 | 0.05 | 0.05 | 69 | 1020.0 |
| 20260507033710 | 2 | 121 | 0.0 | 3.2 | 0.00 | 0.05 | 0.05 | 68 | 1019.8 |
| 20260507032701 | 2 | 145 | 0.0 | 4.8 | 0.00 | 0.05 | 0.05 | 66 | 1019.4 |
| 20260507031705 | 2 | 164 | 0.0 | 3.2 | 0.00 | 0.05 | 0.05 | 67 | 1018.9 |
| 20260507030713 | 3 | 145 | 0.0 | 0.0 | 0.00 | 0.05 | 0.05 | 65 | 1018.7 |
| 20260507024531 | 5 | 212 | 0.0 | 0.0 | 0.00 | 0.05 | 0.05 | 55 | 1018.1 |
| 20260507023533 | 5 | 213 | 0.0 | 0.0 | 0.00 | 0.05 | 0.05 | 50 | 1018.0 |
| 20260507022523 | 6 | 252 | 0.0 | 0.0 | 0.00 | 0.05 | 0.05 | 46 | 1017.6 |
| 20260507021539 | 7 | 243 | 0.0 | 3.2 | 0.00 | 0.05 | 0.05 | 42 | 1017.4 |
| 20260507020527 | 7 | 290 | 0.0 | 8.0 | 0.00 | 0.05 | 0.05 | 39 | 1017.1 |
| 20260507015454 | 8 | 342 | 0.0 | 4.8 | 0.00 | 0.05 | 0.05 | 37 | 1016.9 |
| 20260507014451 | 8 | 340 | 0.0 | 8.0 | 0.00 | 0.05 | 0.05 | 35 | 1016.8 |
| 20260507013453 | 10 | 278 | 1.6 | 8.0 | 0.00 | 0.05 | 0.05 | 32 | 1016.5 |
| 20260507012450 | 10 | 24 | 0.0 | 6.4 | 0.00 | 0.05 | 0.05 | 30 | 1016.4 |
| 20260507011448 | 10 | 325 | 1.6 | 12.9 | 0.00 | 0.05 | 0.05 | 30 | 1016.3 |
| 20260507010431 | 10 | 4 | 3.2 | 12.9 | 0.00 | 0.05 | 0.05 | 30 | 1016.0 |
| 20260507005450 | 11 | 9 | 1.6 | 11.3 | 0.00 | 0.05 | 0.05 | 31 | 1015.8 |